[[{"header":{"parameterUnit":"m.s-1","parameterCategory":1,"la1":30.2991,"la2":30.254,"lo1":-89.0895,"lo2":-89.0444,"dy":0.0017,"dx":0.0017,"nx":28,"ny":28,"refTime":"2025-08-21T03:00:00:Z","depth":0,"parameterNumber":2,"parameterNumberName":"U-component_of_WINDS"},"data":[0,0,0,0,0,0,0,0,0,0,0,0,0,0,0,0,0,0,0,0,0,0,0,0,0,0,0,0,0,0,0,0,0,0,0,0,0,0,0,0,0,0,0,0,0,0,0,0,0,0,0,0,0,0,0,0,0,0,1.1646,1.1647,0,1.165,1.165,1.165,1.1656,1.1656,1.1656,1.1656,1.1659,1.1659,1.1658,0,0,0,0,0,0,0,0,0,0,0,0,0,1.1645,1.1645,1.1646,1.1647,1.1647,1.165,1.165,1.165,1.1656,1.1656,1.1656,1.1656,1.1659,1.1659,1.1658,0,0,0,0,0,0,0,0,0,0,0,0,0,1.1647,1.1645,1.1646,1.165,1.165,1.165,1.165,1.165,1.1656,1.1656,1.1656,1.1656,1.1659,1.1659,1.1658,1.1655,0,0,1.1658,1.1658,0,0,0,0,0,0,0,0,1.1647,1.1647,1.1649,1.165,1.165,1.1653,1.165,1.1651,1.1656,1.1654,1.1656,1.1656,1.1656,1.1657,1.1657,1.1655,1.1655,1.1658,1.1658,1.1658,1.1658,0,0,0,0,0,0,0,1.1646,1.1647,1.1648,1.1649,1.165,1.1651,1.1652,1.165,1.1654,1.1654,1.1654,1.1655,1.1657,1.1657,1.1657,1.1655,1.1658,1.1658,1.1658,1.1658,1.1651,1.1651,0,0,0,0,0,0,1.1646,1.1646,1.1648,1.1648,1.1649,1.1651,1.1652,1.1652,1.1654,1.1655,1.1655,1.1655,1.1657,1.1657,1.1657,1.1653,1.1658,1.1658,1.1658,1.1651,1.1651,1.1651,0,0,0,0,0,0,1.1646,1.1646,1.1648,1.1647,1.1648,1.1651,1.1651,1.1652,1.1652,1.1655,1.1655,1.1654,1.1657,1.1657,1.1655,1.1653,1.1658,1.1658,1.1651,1.1651,1.1651,1.1645,0,0,0,0,0,0,1.1646,1.1646,1.1644,1.1647,1.1648,1.1646,1.1651,1.1652,1.1652,1.1652,1.1654,1.1655,1.1657,1.1655,1.1655,1.1653,1.1658,1.1651,1.1651,1.1651,1.1645,1.1644,1.1644,0,0,0,0,0,1.1646,1.1642,1.1644,1.1644,1.1646,1.1646,1.1646,1.1649,1.1652,1.165,1.1652,1.1655,1.1654,1.1655,1.1655,1.1653,1.1651,1.1651,1.1651,1.1645,1.1644,1.1644,0,0,0,0,0,0,1.1638,1.1642,1.1645,1.1642,1.1644,1.1647,1.1645,1.1648,1.1648,1.1649,1.1652,1.1653,1.1651,1.1652,1.1653,1.165,1.1653,1.1653,1.1649,1.1648,1.1647,1.1647,1.1658,0,0,0,0,0,1.1636,1.1636,1.164,1.1637,1.1638,1.1641,1.1641,1.1644,1.1645,1.1646,1.1648,1.1649,1.1649,1.1649,1.1649,1.1646,1.1646,1.1644,1.1643,1.1643,1.1642,1.1641,1.1641,1.1649,1.1649,1.1649,0,0,1.1632,1.1634,1.1634,1.1635,1.1637,1.1637,1.1642,1.1641,1.1641,1.1645,1.1644,1.1646,1.1647,1.1645,1.1644,1.1646,1.164,1.1642,1.1642,1.1642,1.1641,1.164,1.1639,1.1649,1.1649,1.1649,0,0,1.1624,1.1626,1.1624,1.1626,1.1628,1.1631,1.163,1.1634,1.1635,1.1634,1.1638,1.1638,1.1638,1.1639,1.1639,1.1634,1.1636,1.1634,1.163,1.1629,1.1628,1.1627,1.1626,1.1625,1.1633,1.1633,1.1633,0,1.1618,1.1618,1.1622,1.1622,1.1623,1.1628,1.1626,1.1628,1.163,1.163,1.1632,1.1633,1.1635,1.1633,1.1632,1.1632,1.1632,1.1633,1.1628,1.1627,1.1627,1.1625,1.1624,1.1633,1.1633,1.1633,1.1633,0,1.1611,1.1611,1.1609,1.1612,1.1613,1.1611,1.1616,1.1616,1.1619,1.1622,1.1621,1.1623,1.1624,1.1624,1.1627,1.1624,1.1625,1.1627,1.163,1.1626,1.1624,1.1623,1.1633,1.1633,1.1633,1.1633,0,0,1.1596,1.1603,1.1602,1.1604,1.1608,1.1608,1.1608,1.1609,1.161,1.1611,1.1611,1.1612,1.1615,1.1615,1.1618,1.1618,1.1614,1.162,1.1621,1.1619,1.1611,1.1608,1.1608,1.1616,1.1616,1.1616,1.1611,0,1.1589,1.1588,1.1593,1.1591,1.1592,1.1598,1.1598,1.16,1.1603,1.1604,1.1607,1.1607,1.1611,1.1611,1.1611,1.1614,1.1612,1.1615,1.1615,1.1615,1.1614,1.1607,1.1604,1.1599,1.161,1.161,1.161,0,1.158,1.1582,1.158,1.1586,1.1586,1.1585,1.1588,1.1589,1.1592,1.1594,1.1596,1.16,1.16,1.1604,1.1604,1.1606,1.1607,1.1608,1.1608,1.1608,1.1612,1.1606,1.1598,1.1597,1.1609,1.1609,1.1609,0,1.1569,1.1572,1.1572,1.1573,1.1579,1.1579,1.1581,1.1585,1.1586,1.1588,1.1589,1.1591,1.1593,1.1594,1.1599,1.1601,1.1599,1.1603,1.1601,1.1601,1.1599,1.1599,1.159,1.16,1.16,1.16,1.16,0,1.156,1.1559,1.1567,1.1567,1.1566,1.1572,1.1571,1.1574,1.1578,1.1578,1.1584,1.1584,1.159,1.1592,1.1595,1.1595,1.1596,1.1597,1.1598,1.1597,1.1596,1.1597,1.1597,1.16,1.16,1.16,1.16,0,1.1548,1.1553,1.1553,1.156,1.1561,1.156,1.1566,1.1566,1.157,1.1571,1.1571,1.1577,1.1579,1.1584,1.1587,1.159,1.1589,1.159,1.1588,1.1588,1.1586,1.1586,1.1577,1.1576,1.1586,1.1586,1.1586,0,1.1541,1.154,1.1547,1.1548,1.1551,1.1552,1.1554,1.156,1.1562,1.1567,1.1566,1.1569,1.1571,1.1574,1.1579,1.1581,1.1583,1.158,1.1583,1.1582,1.1583,1.1583,1.1583,1.1579,1.1578,1.1578,1.1578,0,1.1528,1.1532,1.1534,1.1538,1.154,1.1543,1.1546,1.1547,1.1554,1.1555,1.1558,1.156,1.1564,1.1566,1.157,1.1573,1.1577,1.1577,1.1577,1.1575,1.1573,1.1574,1.1585,1.1577,1.1577,1.1577,1.1577,1.1577,1.1518,1.1519,1.1524,1.1527,1.153,1.1533,1.1534,1.1539,1.1541,1.1545,1.1549,1.1551,1.1556,1.1561,1.1564,1.1566,1.1568,1.1567,1.1567,1.1567,1.1566,1.1574,1.1567,1.1567,1.1567,1.1567,1.1567,0,1.1506,1.151,1.1513,1.1518,1.152,1.1525,1.153,1.1531,1.1533,1.1537,1.154,1.1544,1.1547,1.1552,1.1556,1.1556,1.1558,1.1557,1.1557,1.1557,1.1564,1.1564,1.1555,1.1555,1.1555,1.1555,1.1555,1.1555,1.15,1.1501,1.1505,1.1508,1.1512,1.1515,1.1517,1.152,1.1524,1.1528,1.153,1.1534,1.1539,1.1544,1.1547,1.1549,1.155,1.1548,1.155,1.1556,1.1557,1.1558,1.1558,1.1548,1.1548,1.1543,1.1543,1.1543]},{"header":{"parameterUnit":"m.s-1","parameterCategory":1,"la1":30.2991,"la2":30.254,"lo1":-89.0895,"lo2":-89.0444,"dy":0.0017,"dx":0.0017,"nx":28,"ny":28,"refTime":"2025-08-21T03:00:00:Z","depth":0,"parameterNumber":3,"parameterNumberName":"V-component_of_WINDS"},"data":[0,0,0,0,0,0,0,0,0,0,0,0,0,0,0,0,0,0,0,0,0,0,0,0,0,0,0,0,0,0,0,0,0,0,0,0,0,0,0,0,0,0,0,0,0,0,0,0,0,0,0,0,0,0,0,0,0,0,-0.035,-0.0348,0,-0.024,-0.0239,-0.0238,-0.02,-0.02,-0.0201,-0.0201,-0.0084,-0.008,-0.0077,0,0,0,0,0,0,0,0,0,0,0,0,0,-0.0521,-0.0518,-0.035,-0.0348,-0.0347,-0.024,-0.0239,-0.0237,-0.02,-0.02,-0.0201,-0.0201,-0.0085,-0.0081,-0.0077,0,0,0,0,0,0,0,0,0,0,0,0,0,-0.0433,-0.0517,-0.035,-0.0316,-0.0311,-0.0241,-0.0239,-0.0237,-0.02,-0.02,-0.0201,-0.0202,-0.0086,-0.0081,-0.0076,-0.003,0,0,-0.006,-0.0057,0,0,0,0,0,0,0,0,-0.0438,-0.0426,-0.0322,-0.0318,-0.0313,-0.0235,-0.0256,-0.0167,-0.02,-0.0242,-0.0201,-0.0202,-0.0133,-0.0124,-0.0102,-0.0024,-0.0019,-0.0059,-0.0056,-0.0054,-0.0052,0,0,0,0,0,0,0,-0.0444,-0.0431,-0.0306,-0.032,-0.0315,-0.0304,-0.0292,-0.0239,-0.0185,-0.0238,-0.0235,-0.0223,-0.0131,-0.0107,-0.0099,-0.0018,-0.0059,-0.0055,-0.0051,-0.0049,0.0104,0.0105,0,0,0,0,0,0,-0.0457,-0.0436,-0.031,-0.0303,-0.0378,-0.03,-0.0287,-0.0259,-0.0185,-0.0175,-0.0223,-0.0222,-0.0116,-0.0105,-0.0094,-0.0035,-0.0054,-0.0049,-0.0046,0.0103,0.0104,0.0105,0,0,0,0,0,0,-0.046,-0.0446,-0.0314,-0.0369,-0.0351,-0.0297,-0.0265,-0.0256,-0.0233,-0.0174,-0.0163,-0.0209,-0.0116,-0.0102,-0.0046,-0.0031,-0.0046,-0.0042,0.0102,0.0103,0.0105,0.0083,0,0,0,0,0,0,-0.0465,-0.0447,-0.043,-0.0369,-0.0348,-0.0269,-0.0264,-0.0254,-0.0224,-0.0222,-0.0158,-0.0148,-0.0115,-0.0055,-0.0041,-0.0024,-0.0037,0.0101,0.0103,0.0104,0.0083,0.0084,0.0084,0,0,0,0,0,-0.0472,-0.0439,-0.043,-0.0415,-0.0326,-0.0269,-0.0257,-0.0222,-0.0223,-0.0205,-0.0167,-0.015,-0.0035,-0.0049,-0.0034,-0.0014,0.01,0.0102,0.0104,0.0082,0.0083,0.0084,0,0,0,0,0,0,-0.0498,-0.0431,-0.0419,-0.0366,-0.0324,-0.0263,-0.0238,-0.0222,-0.0176,-0.0176,-0.0132,-0.0118,-0.0066,-0.0034,-0.0052,0.0034,0.0034,0.0039,0.0012,0.0014,0.0014,0.0006,-0.0033,0,0,0,0,0,-0.0499,-0.0459,-0.0401,-0.036,-0.034,-0.0293,-0.0266,-0.0243,-0.0197,-0.0178,-0.0136,-0.009,-0.0043,-0.0013,0.0033,0.0087,0.0102,0.0108,0.0109,0.0109,0.0114,0.0145,0.0149,0.0111,0.0111,0.0111,0,0,-0.0498,-0.0456,-0.0433,-0.0365,-0.0329,-0.0287,-0.0278,-0.0234,-0.0203,-0.017,-0.0116,-0.0084,-0.0029,0.0026,0.0052,0.0053,0.0127,0.0112,0.0112,0.0116,0.0148,0.0151,0.0154,0.0113,0.0113,0.0112,0,0,-0.0475,-0.044,-0.0402,-0.0367,-0.0314,-0.0283,-0.0274,-0.0215,-0.0193,-0.0138,-0.0113,-0.0074,0.0005,0.0043,0.0073,0.0109,0.0127,0.0123,0.0127,0.0158,0.0161,0.0163,0.0177,0.0181,0.0127,0.0127,0.0127,0,-0.048,-0.0418,-0.0384,-0.0342,-0.0312,-0.0283,-0.0243,-0.021,-0.0144,-0.0123,-0.0123,-0.0024,0.0015,0.0079,0.0088,0.0111,0.0123,0.0116,0.0157,0.016,0.0163,0.0177,0.0182,0.0126,0.0126,0.0126,0.0126,0,-0.0427,-0.0384,-0.036,-0.0299,-0.0266,-0.0225,-0.0183,-0.0154,-0.0134,-0.0102,-0.0046,0.0001,0.0057,0.0074,0.0095,0.0141,0.0141,0.0148,0.0149,0.0166,0.0179,0.0185,0.0125,0.0125,0.0125,0.0125,0,0,-0.0417,-0.0338,-0.0329,-0.0301,-0.0241,-0.0206,-0.0164,-0.0111,-0.0086,-0.0042,-0.0004,0.0062,0.0069,0.0102,0.0128,0.0154,0.018,0.0159,0.0161,0.0162,0.0236,0.023,0.0235,0.0192,0.0193,0.0194,0.0231,0,-0.0385,-0.031,-0.0278,-0.0217,-0.0177,-0.0149,-0.0112,-0.007,-0.004,-0.0,0.0034,0.008,0.0086,0.0106,0.0133,0.0171,0.0196,0.0169,0.0229,0.0231,0.0215,0.0242,0.0237,0.027,0.0237,0.0238,0.0238,0,-0.0338,-0.0296,-0.0231,-0.0176,-0.0158,-0.0125,-0.0074,-0.0037,0.0012,0.0032,0.0068,0.0092,0.0139,0.0135,0.0202,0.0183,0.0209,0.0231,0.0234,0.0242,0.0236,0.0252,0.0281,0.0286,0.0247,0.0246,0.0246,0,-0.0337,-0.0263,-0.0215,-0.0191,-0.0126,-0.0104,-0.0075,-0.0027,0.0002,0.0048,0.0068,0.0118,0.0147,0.0186,0.0223,0.0217,0.0286,0.0286,0.0306,0.0305,0.032,0.0319,0.0355,0.0335,0.0335,0.0335,0.0335,0,-0.0304,-0.0266,-0.0213,-0.0183,-0.0139,-0.0102,-0.0058,-0.0028,0.0014,0.0052,0.0079,0.0114,0.0161,0.0202,0.0232,0.0282,0.0295,0.0314,0.0321,0.0312,0.0309,0.0331,0.033,0.0337,0.0336,0.0336,0.0336,0,-0.0294,-0.0258,-0.0203,-0.0147,-0.0131,-0.0101,-0.0051,-0.0021,0.001,0.0057,0.0071,0.012,0.017,0.021,0.0276,0.0296,0.035,0.0358,0.0333,0.0337,0.0355,0.0353,0.0407,0.0416,0.0389,0.0389,0.039,0,-0.0276,-0.0246,-0.0186,-0.016,-0.0133,-0.0091,-0.0061,-0.0023,0.0007,0.0064,0.0089,0.014,0.0183,0.0262,0.0305,0.0355,0.0366,0.0381,0.0374,0.0363,0.0367,0.0365,0.0369,0.0382,0.0382,0.0382,0.0382,0,-0.0247,-0.023,-0.0189,-0.0141,-0.0107,-0.0067,-0.0026,-0.0006,0.0039,0.0072,0.0122,0.0156,0.0222,0.0273,0.0328,0.036,0.0379,0.0384,0.0391,0.0383,0.0367,0.0376,0.0336,0.0383,0.0383,0.0383,0.0383,0.0383,-0.0231,-0.0203,-0.0157,-0.0112,-0.0078,-0.0041,-0.0009,0.0025,0.0067,0.0122,0.0142,0.0194,0.0243,0.0318,0.035,0.0392,0.0394,0.0405,0.0408,0.041,0.0409,0.0359,0.0402,0.0402,0.0402,0.0402,0.0402,0,-0.0199,-0.0169,-0.0128,-0.0073,-0.0037,-0.0025,0.0021,0.0051,0.0095,0.0137,0.0179,0.0237,0.0286,0.0332,0.0384,0.0409,0.042,0.0422,0.0421,0.0428,0.0404,0.0392,0.0413,0.0413,0.0413,0.0413,0.0413,0.0413,-0.0179,-0.0131,-0.0109,-0.0043,-0.0012,0.0037,0.0062,0.0097,0.0131,0.0194,0.0234,0.0263,0.0307,0.0363,0.0409,0.0422,0.044,0.044,0.0455,0.0432,0.043,0.0429,0.0418,0.0444,0.0444,0.0476,0.0477,0.0477]}]]